Content
SEND FEEDBACK

Daily
Averages
Monthly
Summary
United States of America

MAURICEVILLE, TEXAS


Home > North America > United States > Texas
Elevation: 20 feet     Latitude: 30 14N     Longitude: 093 44W

WEATHER
 
SELECT A DAY
Number of Records: 119,558;   Date Range: 8/25/05 - 12/26/14
 
SHARE

PRINT THIS DATA

[ ← Previous Day ]
WEATHER ALMANAC - NOVEMBER 22, 2013
[ Next Day → ]
[ °C ]   °F
Weather ElementAverageHighLow
Temperature66.8 °F74.3 °F (11:55 am)54.5 °F (10:55 pm)
Dewpoint65.8 °F71.2 °F (10:55 am)54 °F (11:15 pm)
Humidity96.9 %100 % (8:35 pm)90 % (11:55 am)
Barometer30.18 in30.24 in (8:35 pm)30.11 in (2:35 am)
Wind Speed6.9 mph13.8 mph (2:35 pm)
Wind Gust17.3 mph (9:15 pm)
Weather ElementAverage
Visibility6 mi
Wind DirectionSSE (158.2 °)

Weather ElementTotal
Precipitation0.07 in
Heating Degree Days0.6 (Base 65)
Growing Degree Days14.4 (Base 50)
Averaged from 71 records on November 22, 2013
WEATHER CONDITIONS BREAKOUT
WIND DIRECTION BREAKOUT
WEATHER BY HOUR - NOVEMBER 22, 2013
[ °C ]   °F
Local TimeTemperatureDewpointHumidityBarometerVisibilityWind DirectionWind SpeedGust SpeedPrecipitationEventsConditions
12:35 AM68.9 °F68.4 °F98 %30.13 in1.0 miEast (100°)8.1 mphOvercast
12:55 AM68.5 °F68.2 °F99 %30.12 in1.8 miEast (100°)8.1 mphOvercast
1:15 AM68.9 °F68.4 °F98 %30.12 in3.0 miESE (110°)6.9 mphOvercast
1:35 AM68.9 °F68.5 °F99 %30.12 in2.5 miESE (120°)8.1 mphOvercast
1:55 AM69.1 °F68.9 °F99 %30.12 in1.5 miESE (110°)8.1 mphOvercast
2:15 AM69.1 °F68.9 °F99 %30.12 in1.5 miSE (130°)10.4 mphOvercast
2:35 AM69.1 °F68.9 °F99 %30.11 in1.2 miESE (120°)9.2 mphOvercast
2:55 AM69.1 °F68.9 °F99 %30.11 in1.8 miESE (110°)6.9 mphOvercast
3:15 AM68.9 °F68.5 °F99 %30.11 in1.2 miEast (100°)9.2 mphOvercast
3:35 AM68.9 °F68.4 °F98 %30.11 in2.5 miESE (110°)6.9 mphOvercast
3:55 AM68.9 °F68.5 °F99 %30.11 in4.0 miEast (90°)4.6 mphOvercast
4:15 AM69.1 °F68.7 °F99 %30.12 in4.0 miESE (110°)4.6 mphOvercast
4:35 AM69.1 °F68.9 °F99 %30.13 in4.0 miESE (110°)6.9 mphOvercast
4:55 AM69.3 °F68.9 °F99 %30.14 in5.0 miEast (80°)4.6 mphOvercast
5:15 AM69.1 °F68.9 °F99 %30.15 in4.0 miENE (70°)3.5 mphOvercast
5:35 AM68.9 °F68.5 °F99 %30.15 in2.5 miESE (110°)5.8 mphOvercast
5:55 AM68.9 °F68.4 °F98 %30.16 in1.2 miEast (100°)5.8 mphOvercast
6:15 AM68.9 °F68.4 °F98 %30.16 in1.5 miEast (80°)4.6 mphOvercast
6:35 AM68.5 °F68.2 °F99 %30.17 in1.5 miEast (80°)6.9 mphOvercast
6:55 AM68.9 °F68.5 °F99 %30.17 in3.0 miEast (100°)4.6 mphOvercast
7:15 AM69.1 °F68.9 °F99 %30.17 in0.8 miEast (80°)5.8 mphOvercast
7:35 AM68.9 °F68.5 °F99 %30.17 in0.5 miEast (90°)9.2 mphFogFog
7:55 AM69.1 °F68.9 °F99 %30.18 in1.0 miEast (80°)6.9 mphOvercast
8:15 AM69.3 °F68.9 °F99 %30.19 in2.0 miEast (80°)6.9 mphOvercast
8:35 AM69.8 °F69.3 °F98 %30.19 in1.8 miENE (70°)9.2 mphOvercast
8:55 AM69.8 °F69.3 °F98 %30.19 in0.8 miEast (90°)6.9 mphOvercast
9:15 AM70.2 °F69.8 °F99 %30.20 in2.5 miESE (110°)8.1 mphOvercast
9:35 AM70.5 °F70.2 °F99 %30.20 in2.0 miEast (100°)8.1 mphOvercast
9:55 AM71.6 °F70.7 °F97 %30.20 in7.0 miESE (110°)10.4 mphOvercast
10:15 AM71.6 °F70.3 °F96 %30.21 in7.0 miEast (100°)8.1 mphOvercast
10:35 AM72.1 °F70.7 °F95 %30.22 in7.0 miEast (90°)3.5 mphOvercast
10:55 AM73.4 °F71.2 °F93 %30.21 in7.0 miCalmOvercast
11:15 AM73.8 °F71.1 °F91 %30.22 in10.0 miSE (130°)5.8 mphOvercast
11:35 AM73.8 °F71.1 °F91 %30.21 in10.0 miESE (110°)5.8 mphOvercast
11:55 AM74.3 °F71.1 °F90 %30.21 in10.0 miESE (120°)4.6 mphOvercast
12:15 PM73.8 °F71.1 °F91 %30.20 in10.0 miSE (130°)4.6 mphOvercast
12:35 PM73.8 °F71.1 °F91 %30.19 in10.0 miENE (70°)3.5 mphOvercast
12:55 PM73.8 °F71.1 °F91 %30.18 in10.0 miESE (110°)4.6 mphThunderstormOvercast
1:15 PM73.6 °F71.1 °F92 %30.16 in10.0 miENE (60°)4.6 mphOvercast
1:35 PM73.6 °F71.2 °F92 %30.15 in7.0 miEast (80°)5.8 mphOvercast
1:55 PM73.8 °F71.1 °F91 %30.14 in7.0 miESE (110°)9.2 mphOvercast
2:15 PM73.6 °F71.2 °F92 %30.14 in7.0 miEast (80°)5.8 mphOvercast
2:35 PM72.3 °F69.6 °F91 %30.14 in7.0 miENE (70°)13.8 mphOvercast
2:55 PM69.8 °F68.0 °F94 %30.15 in10.0 miNE (50°)11.5 mphRainLight Rain
3:15 PM69.8 °F67.5 °F92 %30.16 in10.0 miENE (70°)9.2 mphLight Drizzle
3:35 PM69.3 °F67.1 °F93 %30.15 in5.0 miEast (90°)8.1 mph0.01 inRainHeavy Rain
3:55 PM68.9 °F66.6 °F92 %30.17 in7.0 miENE (70°)8.1 mph0.02 inRainRain
4:15 PM68.0 °F66.7 °F96 %30.17 in7.0 miCalm0.01 inHeavy Drizzle
4:35 PM67.6 °F67.1 °F98 %30.16 in5.0 miCalm0.01 inDrizzle
4:55 PM68.0 °F67.1 °F97 %30.18 in10.0 miNW (320°)3.5 mph0.02 inOvercast
5:15 PM68.0 °F66.9 °F96 %30.18 in10.0 miCalmOvercast
5:35 PM67.5 °F66.7 °F98 %30.19 in10.0 miWNW (300°)5.8 mphOvercast
5:55 PM64.6 °F63.9 °F98 %30.19 in10.0 miWNW (300°)6.9 mphOvercast
6:15 PM63.5 °F63.0 °F98 %30.20 in10.0 miNW (320°)5.8 mphOvercast
6:35 PM62.6 °F61.9 °F97 %30.20 in10.0 miNNW (330°)5.8 mphOvercast
6:55 PM60.6 °F60.1 °F98 %30.20 in10.0 miNNW (330°)8.1 mphOvercast
7:15 PM59.2 °F58.6 °F98 %30.21 in10.0 miNW (320°)6.9 mphOvercast
7:35 PM58.1 °F57.9 °F99 %30.21 in10.0 miNNW (340°)5.8 mphOvercast
7:55 PM57.6 °F57.2 °F99 %30.23 in7.0 miNW (310°)8.1 mphOvercast
8:15 PM56.7 °F56.3 °F99 %30.23 in5.0 miNW (320°)6.9 mphOvercast
8:35 PM56.3 °F56.3 °F100 %30.24 in4.0 miNW (310°)6.9 mphOvercast
8:55 PM55.9 °F55.8 °F99 %30.24 in5.0 miNNW (340°)9.2 mphOvercast
9:15 PM55.4 °F55.2 °F99 %30.24 in10.0 miNNW (330°)11.5 mph17.3 mphOvercast
9:35 PM55.0 °F54.7 °F99 %30.24 in7.0 miNNW (330°)12.7 mph16.1 mphOvercast
9:55 PM54.9 °F54.5 °F99 %30.24 in10.0 miNNW (330°)11.5 mph16.1 mphOvercast
10:15 PM54.7 °F54.5 °F99 %30.24 in10.0 miNNW (340°)8.1 mphOvercast
10:35 PM54.7 °F54.5 °F99 %30.24 in10.0 miNNW (340°)11.5 mphOvercast
10:55 PM54.5 °F54.1 °F99 %30.23 in10.0 miNNW (330°)9.2 mph17.3 mphOvercast
11:15 PM54.5 °F54.0 °F98 %30.23 in10.0 miNNW (330°)8.1 mphOvercast
11:35 PM54.5 °F54.0 °F98 %30.23 in10.0 miNNW (340°)9.2 mphOvercast
11:55 PM54.5 °F54.0 °F98 %30.23 in10.0 miNNW (330°)8.1 mphOvercast
Hourly data recorded from KORG, located miles away from Mauriceville, Texas







STORIES FROM OUR PARTNERS